Latest Coastal Weather Observations for Hogan Island

IDV60701

Issued at 4:32 am EST Wednesday 26 April 2017 (issued every 10 minutes, with the page automatically refreshed every 10 minutes)

About coastal observations | Map of coastal stations | Coastal observations for VIC | Marine services | Other Formats
Station Details ID: 200838 Name: HOGAN ISLAND Lat: -39.22 Lon: 146.98 Height: 116.0 m
Data from the previous 72 hours. | See also: Recent months at Hogan Island
Date/Time
EST
Temp
°C
Wind Pressure Rain since
9am
mm
Weather Cloud Vis
km
Sea
Height
m
Swell
Dir  Spd
kts
Gust
kts
hPa Trend Height
m
Period
s
Dir
26/04:30am 13.8 WNW 31 37 999.6 - 3.0 - - - - - - -
26/04:00am 13.8 WNW 29 37 999.8 - 3.0 - - - - - - -
26/03:30am 14.0 WNW 24 31 1000.3 - 3.0 - - - - - - -
26/03:00am 14.0 WNW 29 33 1000.2 - 3.0 - - - - - - -
26/02:30am 14.1 WNW 22 26 1000.9 - 3.0 - - - - - - -
26/02:00am 14.1 W 24 30 1001.1 - 3.0 - - - - - - -
26/01:30am 14.3 WNW 27 31 1001.1 - 3.0 - - - - - - -
26/01:00am 14.0 WNW 20 24 1001.6 - 3.0 - - - - - - -
26/12:30am 14.1 NW 18 22 1002.0 - 2.8 - - - - - - -
26/12:00am 14.2 NW 20 24 1002.0 - 2.8 - - - - - - -
 
Date/Time
EST
Temp
°C
Wind Pressure Rain since
9am
mm
Weather Cloud Vis
km
Sea
Height
m
Swell
Dir  Spd
kts
Gust
kts
hPa Trend Height
m
Period
s
Dir
25/11:30pm 14.1 NW 13 19 1002.5 - 2.8 - - - - - - -
25/11:00pm 13.9 NW 14 18 1002.7 - 2.8 - - - - - - -
25/10:30pm 14.1 NW 14 18 1003.0 - 2.8 - - - - - - -
25/10:00pm 14.3 WNW 15 19 1003.5 - 2.8 - - - - - - -
25/09:30pm 14.5 WNW 18 20 1003.8 - 2.8 - - - - - - -
25/09:00pm 14.7 WNW 18 21 1004.1 - 2.8 - - - - - - -
25/08:30pm 14.7 WNW 21 24 1004.2 - 2.8 - - - - - - -
25/08:00pm 14.7 W 24 27 1004.2 - 2.8 - - - - - - -
25/07:30pm 14.7 W 21 25 1004.0 - 2.8 - - - - - - -
25/07:00pm 14.6 W 25 29 1004.0 - 2.8 - - - - - - -
25/06:30pm 14.7 W 27 30 1003.9 - 2.8 - - - - - - -
25/06:00pm 14.7 W 29 33 1003.6 - 2.8 - - - - - - -
25/05:30pm 14.5 W 26 30 1003.7 - 2.8 - - - - - - -
25/05:00pm 14.8 W 28 32 1003.7 - 2.8 - - - - - - -
25/04:30pm 15.1 WSW 26 29 1003.8 - 2.6 - - - - - - -
25/04:00pm 15.0 WSW 26 29 1003.8 - 2.6 - - - - - - -
25/03:30pm 15.5 WSW 24 27 1003.8 - 2.6 - - - - - - -
25/03:00pm 15.4 WSW 25 28 1003.8 - 2.6 - - - - - - -
25/02:30pm 15.3 WSW 24 27 1003.8 - 2.6 - - - - - - -
25/02:00pm 14.6 SW 20 23 1003.8 - 2.6 - - - - - - -
25/01:30pm 14.8 SW 24 29 1003.8 - 2.4 - - - - - - -
25/01:00pm 15.2 WSW 20 23 1003.9 - 2.4 - - - - - - -
25/12:48pm 15.0 WSW 21 24 1004.0 - 2.2 - - - - - - -
25/12:30pm 15.6 W 17 19 1004.2 - 2.0 - - - - - - -
25/12:00pm 15.4 W 18 22 1004.2 - 1.8 - - - - - - -
25/11:30am 15.5 W 16 18 1005.0 - 1.8 - - - - - - -
25/11:00am 15.4 W 14 16 1005.0 - 1.8 - - - - - - -
25/10:30am 15.0 W 12 15 1005.4 - 1.8 - - - - - - -
25/10:00am 14.9 W 14 16 1005.6 - 1.0 - - - - - - -
25/09:30am 15.2 WNW 9 11 1005.5 - 0.4 - - - - - - -
25/09:00am 15.3 WNW 13 15 1005.6 - 14.6 - - - - - - -
25/08:30am 15.4 WNW 14 18 1005.8 - 14.0 - - - - - - -
25/08:00am 15.5 WNW 17 19 1005.4 - 11.6 - - - - - - -
25/07:30am 15.7 WNW 17 20 1005.3 - 10.6 - - - - - - -
25/07:00am 15.7 NW 22 27 1005.2 - 9.4 - - - - - - -
25/06:45am 15.7 NW 20 26 1005.1 - 9.2 - - - - - - -
25/06:30am 15.5 N 16 24 1005.2 - 9.0 - - - - - - -
25/06:00am 15.5 NNE 14 17 1005.3 - 8.2 - - - - - - -
25/05:30am 15.9 NNE 13 15 1005.8 - 6.4 - - - - - - -
25/05:00am 15.9 NE 10 12 1006.3 - 6.2 - - - - - - -
25/04:30am 16.1 NE 7 9 1006.7 - 5.4 - - - - - - -
25/04:00am 16.1 ESE 7 8 1007.2 - 4.2 - - - - - - -
25/03:30am 16.2 ESE 4 5 1008.1 - 2.4 - - - - - - -
25/03:00am 16.1 ESE 8 9 1007.9 - 0.6 - - - - - - -
25/02:30am 16.1 SE 7 8 1008.6 - 0.2 - - - - - - -
25/02:00am 16.1 NNW 2 7 1009.4 - 0.0 - - - - - - -
25/01:30am 16.3 SSW 8 12 1010.0 - 0.0 - - - - - - -
25/01:00am 16.3 ENE 11 13 1010.0 - 0.0 - - - - - - -
25/12:30am 16.2 NE 12 15 1010.7 - 0.0 - - - - - - -
25/12:00am 15.8 NE 11 13 1011.2 - 0.0 - - - - - - -
 
Date/Time
EST
Temp
°C
Wind Pressure Rain since
9am
mm
Weather Cloud Vis
km
Sea
Height
m
Swell
Dir  Spd
kts
Gust
kts
hPa Trend Height
m
Period
s
Dir
24/11:30pm 15.5 NE 10 11 1011.9 - 0.0 - - - - - - -
24/11:00pm 15.3 NNE 10 11 1012.7 - 0.0 - - - - - - -
24/10:30pm 15.7 NNE 8 10 1013.1 - 0.0 - - - - - - -
24/10:00pm 15.9 NNE 8 9 1013.6 - 0.0 - - - - - - -
24/09:30pm 15.9 N 8 11 1014.1 - 0.0 - - - - - - -
24/09:00pm 15.9 NNE 7 9 1014.3 - 0.0 - - - - - - -
24/08:30pm 15.9 NNE 8 10 1014.7 - 0.0 - - - - - - -
24/08:00pm 15.5 ENE 9 9 1014.7 - 0.0 - - - - - - -
24/07:30pm 15.3 ENE 9 10 1014.9 - 0.0 - - - - - - -
24/07:00pm 15.3 ENE 12 14 1015.0 - 0.0 - - - - - - -
24/06:30pm 15.3 ENE 11 13 1014.9 - 0.0 - - - - - - -
24/06:00pm 15.2 NNW 8 10 1014.9 - 0.0 - - - - - - -
24/05:30pm 15.3 WNW 6 6 1015.2 - 0.0 - - - - - - -
24/05:00pm 15.7 WNW 6 6 1015.3 - 0.0 - - - - - - -
24/04:30pm 16.3 WNW 4 5 1015.6 - 0.0 - - - - - - -
24/04:00pm 16.7 WNW 3 5 1015.8 - 0.0 - - - - - - -
24/03:30pm 17.2 WNW 3 5 1016.1 - 0.0 - - - - - - -
24/03:00pm 17.0 N 6 8 1016.1 - 0.0 - - - - - - -
24/02:30pm 17.0 NNW 7 9 1016.3 - 0.0 - - - - - - -
24/02:00pm 17.2 NNE 6 8 1016.5 - 0.0 - - - - - - -
24/01:30pm 17.4 NE 6 8 1016.7 - 0.0 - - - - - - -
24/01:00pm 17.0 NNE 6 7 1017.2 - 0.0 - - - - - - -
24/12:30pm 16.5 NNE 8 10 1017.8 - 0.0 - - - - - - -
24/12:00pm 16.5 NNE 10 13 1018.4 - 0.0 - - - - - - -
24/11:30am 17.1 N 9 11 1018.9 - 0.0 - - - - - - -
24/11:00am 16.8 NNE 7 11 1019.5 - 0.0 - - - - - - -
24/10:30am 16.5 N 7 9 1020.0 - 0.0 - - - - - - -
24/10:00am 16.9 N 7 9 1020.3 - 0.0 - - - - - - -
24/09:30am 16.5 NNE 7 8 1020.5 - 0.0 - - - - - - -
24/09:00am 16.5 NNE 7 8 1020.7 - 0.0 - - - - - - -
24/08:30am 16.5 NE 5 6 1020.9 - 0.0 - - - - - - -
24/08:00am 15.8 NNE 6 7 1020.9 - 0.0 - - - - - - -
24/07:30am 15.4 NNE 5 6 1020.9 - 0.0 - - - - - - -
24/07:00am 15.0 NE 5 6 1020.7 - 0.0 - - - - - - -
24/06:30am 15.0 NNE 4 5 1020.8 - 0.0 - - - - - - -
24/06:00am 15.1 N 7 8 1020.8 - 0.0 - - - - - - -
24/05:30am 14.7 NNE 6 6 1020.9 - 0.0 - - - - - - -
24/05:00am 14.3 NNE 5 6 1021.0 - 0.0 - - - - - - -
24/04:30am 14.9 NNE 7 8 1021.1 - 0.0 - - - - - - -
24/04:00am 14.7 NE 7 8 1021.1 - 0.0 - - - - - - -
24/03:30am 15.3 NE 8 9 1021.1 - 0.0 - - - - - - -
24/03:00am 15.1 NE 7 8 1021.3 - 0.0 - - - - - - -
24/02:30am 15.3 NE 8 10 1021.5 - 0.0 - - - - - - -
24/02:00am 15.3 NE 9 11 1021.8 - 0.0 - - - - - - -
24/01:30am 15.7 NE 10 11 1022.1 - 0.0 - - - - - - -
24/01:00am 15.9 NE 11 12 1022.4 - 0.0 - - - - - - -
24/12:30am 15.8 NE 11 13 1022.5 - 0.0 - - - - - - -
24/12:00am 15.9 ENE 13 15 1022.6 - 0.0 - - - - - - -
 
Date/Time
EST
Temp
°C
Wind Pressure Rain since
9am
mm
Weather Cloud Vis
km
Sea
Height
m
Swell
Dir  Spd
kts
Gust
kts
hPa Trend Height
m
Period
s
Dir
23/11:30pm 15.7 ENE 13 15 1023.0 - 0.0 - - - - - - -
23/11:00pm 15.7 E 14 17 1023.2 - 0.0 - - - - - - -
23/10:30pm 15.8 E 15 18 1023.4 - 0.0 - - - - - - -
23/10:00pm 16.0 E 15 17 1023.5 - 0.0 - - - - - - -
23/09:30pm 16.1 ENE 14 18 1023.7 - 0.0 - - - - - - -
23/09:00pm 16.2 ENE 11 14 1023.6 - 0.0 - - - - - - -
23/08:30pm 15.7 E 11 13 1023.5 - 0.0 - - - - - - -
23/08:00pm 15.4 E 9 10 1023.6 - 0.0 - - - - - - -
23/07:30pm 15.6 E 9 10 1023.4 - 0.0 - - - - - - -
23/07:00pm 15.7 E 8 9 1023.3 - 0.0 - - - - - - -
23/06:30pm 15.5 E 8 9 1023.1 - 0.0 - - - - - - -
23/06:00pm 15.7 E 8 8 1022.9 - 0.0 - - - - - - -
23/05:30pm 15.9 ESE 9 9 1022.8 - 0.0 - - - - - - -
23/05:00pm 16.3 ESE 8 9 1022.7 - 0.0 - - - - - - -
23/04:30pm 16.7 SE 6 7 1022.5 - 0.0 - - - - - - -
23/04:00pm 17.0 SE 7 8 1022.5 - 0.0 - - - - - - -
23/03:30pm 17.3 SE 7 8 1022.5 - 0.0 - - - - - - -
23/03:00pm 17.8 S 7 8 1022.4 - 0.0 - - - - - - -
23/02:30pm 17.8 SSW 5 8 1022.5 - 0.0 - - - - - - -
23/02:00pm 18.3 W 6 7 1022.5 - 0.0 - - - - - - -
23/01:30pm 18.7 WNW 6 7 1022.6 - 0.0 - - - - - - -
23/01:00pm 18.9 WNW 8 10 1022.9 - 0.0 - - - - - - -
23/12:30pm 17.9 NW 8 9 1023.2 - 0.0 - - - - - - -
23/12:00pm 18.1 WNW 6 7 1023.4 - 0.0 - - - - - - -
23/11:30am 18.3 NW 8 11 1023.8 - 0.0 - - - - - - -
23/11:00am 18.8 NW 9 10 1023.8 - 0.0 - - - - - - -
23/10:30am 18.3 NW 7 9 1024.0 - 0.0 - - - - - - -
23/10:00am 17.3 WNW 9 11 1024.1 - 0.0 - - - - - - -
23/09:30am 17.2 NW 9 11 1024.1 - 0.0 - - - - - - -
23/09:00am 16.6 NW 8 11 1024.0 - 0.0 - - - - - - -
23/08:30am 16.3 NW 8 11 1024.1 - 0.0 - - - - - - -
23/08:00am 16.2 WNW 11 13 1024.1 - 0.0 - - - - - - -
23/07:30am 15.9 NW 10 13 1023.7 - 0.0 - - - - - - -
23/07:00am 16.0 NNW 8 9 1023.5 - 0.0 - - - - - - -
23/06:30am 16.0 NNW 8 8 1023.2 - 0.0 - - - - - - -
23/06:00am 16.0 NNW 8 8 1022.8 - 0.0 - - - - - - -
23/05:30am 16.0 NNW 7 8 1022.7 - 0.0 - - - - - - -
23/05:00am 16.0 NNW 8 9 1022.6 - 0.0 - - - - - - -

Other Formats:

Comma delimited format used in spreadsheet applications
http://www.bom.gov.au/fwo/IDV60701/IDV60701.94949.axf

JavaScript Object Notation format (JSON) in row-major order
http://www.bom.gov.au/fwo/IDV60701/IDV60701.94949.json